Location: Izdebno
(52.6670°N, 16.2170°E)
Time: 10:51:50
(UTC+01:00)

A-11 Canister half - All Passes

Search period start: 05 March 2024 00:00
Search period end: 15 March 2024 00:00
Orbit: 1526 x 1682 km, 47.3° (Epoch: 04 March)

Date Brightness Start Highest point End Pass type
(mag) Time Alt. Az. Time Alt. Az. Time Alt. Az.
05 Mar - 00:43:47 10° W 00:51:36 31° SW 00:59:21 10° SSE visible
05 Mar - 16:10:27 10° SSE 16:15:03 14° SE 16:19:35 10° E daylight
05 Mar - 18:09:14 10° SSW 18:17:56 39° SSE 18:26:25 10° E visible
05 Mar - 20:12:31 10° WSW 20:21:55 62° S 20:31:05 10° E visible
05 Mar - 22:17:03 10° W 22:26:15 58° SSW 22:35:17 10° ESE visible
06 Mar - 00:22:01 10° W 00:29:56 32° SW 00:37:48 10° SSE visible
06 Mar - 15:49:17 10° SSE 15:53:26 13° SE 15:57:32 10° E daylight
06 Mar - 17:47:36 10° SSW 17:56:15 38° SSE 18:04:41 10° E daylight
06 Mar - 19:50:48 10° WSW 20:00:12 61° S 20:09:22 10° E visible
06 Mar - 21:55:18 10° W 22:04:33 59° SSW 22:13:37 10° ESE visible
07 Mar - 00:00:15 10° W 00:08:17 34° SW 00:16:15 10° SSE visible
07 Mar - 15:28:10 10° SSE 15:31:48 13° SE 15:35:24 10° ESE daylight
07 Mar - 17:25:59 10° SSW 17:34:35 37° SE 17:42:56 10° E daylight
07 Mar - 19:29:04 10° WSW 19:38:29 61° SSE 19:47:39 10° E visible
07 Mar - 21:33:34 10° W 21:42:51 60° SSW 21:51:55 10° ESE visible
07 Mar - 23:38:28 10° W 23:46:37 35° SW 23:54:41 10° SSE visible
08 Mar - 01:47:11 10° WSW 01:49:11 11° WSW 01:51:11 10° SW night (unlit)
08 Mar - 15:07:11 10° SE 15:10:11 12° SE 15:13:10 10° ESE daylight
08 Mar - 17:04:22 10° SSW 17:12:54 36° SE 17:21:12 10° E daylight
08 Mar - 19:07:20 10° WSW 19:16:46 60° SSE 19:25:57 10° E visible
08 Mar - 21:11:48 10° W 21:21:08 61° SSW 21:30:14 10° ESE visible
08 Mar - 23:16:42 10° W 23:24:58 36° SW 23:33:07 10° SSE visible
09 Mar - 01:24:41 10° WSW 01:27:34 12° SW 01:30:28 10° SW night (unlit)
09 Mar - 14:46:24 10° SE 14:48:34 11° ESE 14:50:42 10° ESE daylight
09 Mar - 16:42:46 10° SSW 16:51:13 35° SE 16:59:27 10° E daylight
09 Mar - 18:45:37 10° WSW 18:55:04 59° SSE 19:04:14 10° E visible
09 Mar - 20:50:04 10° W 20:59:26 61° S 21:08:33 10° ESE visible
09 Mar - 22:54:55 10° W 23:03:18 37° SW 23:11:32 10° SSE visible
10 Mar - 01:02:26 10° WSW 01:05:58 13° SW 01:09:31 10° SSW visible
10 Mar - 14:26:43 10° ESE 14:26:57 10° ESE 14:27:11 10° ESE daylight
10 Mar - 16:21:09 10° SSW 16:29:32 33° SE 16:37:42 10° E daylight
10 Mar - 18:23:53 10° WSW 18:33:21 59° SSE 18:42:31 10° E visible
10 Mar - 20:28:19 10° W 20:37:43 62° S 20:46:52 10° ESE visible
10 Mar - 22:33:09 10° W 22:41:37 39° SSW 22:49:57 10° SSE visible
11 Mar - 00:40:17 10° W 00:44:22 14° SW 00:48:26 10° SSW visible
11 Mar - 15:59:34 10° SSW 16:07:51 32° SE 16:15:56 10° E daylight
11 Mar - 18:02:10 10° WSW 18:11:38 58° SSE 18:20:48 10° E daylight
11 Mar - 20:06:33 10° W 20:16:00 63° S 20:25:10 10° ESE visible
11 Mar - 22:11:23 10° W 22:19:57 40° SSW 22:28:22 10° SSE visible
12 Mar - 00:18:13 10° W 00:22:45 15° SW 00:27:16 10° SSW visible
12 Mar - 15:37:59 10° SSW 15:46:11 31° SE 15:54:11 10° E daylight
12 Mar - 17:40:27 10° WSW 17:49:55 57° SSE 17:59:05 10° E daylight
12 Mar - 19:44:48 10° W 19:54:17 63° S 20:03:29 10° ESE visible
12 Mar - 21:49:37 10° W 21:58:17 41° SSW 22:06:46 10° SE visible
12 Mar - 23:56:12 10° W 00:01:08 16° SW 00:06:03 10° SSW visible
13 Mar - 15:16:25 10° SSW 15:24:31 30° SE 15:32:24 10° E daylight
13 Mar - 17:18:43 10° WSW 17:28:12 56° SSE 17:37:22 10° E daylight
13 Mar - 19:23:03 10° W 19:32:34 64° S 19:41:47 10° ESE visible
13 Mar - 21:27:51 10° W 21:36:36 43° SSW 21:45:09 10° SE visible
13 Mar - 23:34:13 10° W 23:39:31 17° SW 23:44:47 10° SSW visible
14 Mar - 14:54:51 10° SSW 15:02:51 29° SE 15:10:38 10° E daylight
14 Mar - 16:57:00 10° SW 17:06:29 55° SSE 17:15:39 10° E daylight
14 Mar - 19:01:18 10° W 19:10:50 64° S 19:20:05 10° ESE visible
14 Mar - 21:06:05 10° W 21:14:55 44° SSW 21:23:32 10° SE visible
14 Mar - 23:12:15 10° W 23:17:54 18° SW 23:23:28 10° SSW visible
